Time,TemperatureF,DewpointF,PressureIn,WindDirection,WindDirectionDegrees,WindSpeedMPH,WindSpeedGustMPH,Humidity,HourlyPrecipIn,Conditions,Clouds,dailyrainin,SoftwareType,DateUTC
2013-09-27 00:15:00,45.2,41.0,29.95,N/A,-737280,0.0,0.0,85,0.00,,,0.00,Wunderground v.1.12,2013-09-27 04:15:00,
2013-09-27 00:16:00,45.0,40.8,29.95,NE,42,0.0,0.0,85,0.00,,,0.00,Wunderground v.1.12,2013-09-27 04:16:00,
2013-09-27 00:46:00,44.8,40.9,29.96,NE,42,0.0,0.0,86,0.00,,,0.00,Wunderground v.1.12,2013-09-27 04:46:00,
2013-09-27 01:15:00,44.2,40.3,29.95,N/A,-737280,0.0,0.0,86,0.00,,,0.00,Wunderground v.1.12,2013-09-27 05:15:00,
2013-09-27 01:16:00,44.1,39.9,29.96,NE,42,0.0,0.0,85,0.00,,,0.00,Wunderground v.1.12,2013-09-27 05:16:00,
2013-09-27 01:46:00,44.0,40.1,29.95,NE,42,0.0,0.0,86,0.00,,,0.00,Wunderground v.1.12,2013-09-27 05:46:00,
2013-09-27 02:15:00,43.6,39.7,29.96,N/A,-737280,0.0,0.0,86,0.00,,,0.00,Wunderground v.1.12,2013-09-27 06:15:00,
2013-09-27 02:16:00,43.3,39.4,29.95,NE,41,0.0,0.0,86,0.00,,,0.00,Wunderground v.1.12,2013-09-27 06:16:00,
2013-09-27 02:46:00,43.2,39.3,29.96,NE,42,0.0,0.0,86,0.00,,,0.00,Wunderground v.1.12,2013-09-27 06:46:00,
2013-09-27 03:15:00,43.0,39.1,29.97,N/A,-737280,0.0,0.0,86,0.00,,,0.00,Wunderground v.1.12,2013-09-27 07:15:00,
2013-09-27 03:16:00,42.9,39.0,29.96,NE,42,0.0,0.0,86,0.00,,,0.00,Wunderground v.1.12,2013-09-27 07:16:00,
2013-09-27 03:46:00,42.9,39.3,29.97,NE,42,0.0,0.0,87,0.00,,,0.00,Wunderground v.1.12,2013-09-27 07:46:00,
2013-09-27 04:15:00,42.6,39.0,29.99,N/A,-737280,0.0,0.0,87,0.00,,,0.00,Wunderground v.1.12,2013-09-27 08:15:00,
2013-09-27 04:16:00,42.5,38.9,29.98,NE,42,0.0,0.0,87,0.00,,,0.00,Wunderground v.1.12,2013-09-27 08:16:00,
2013-09-27 04:46:00,42.5,38.9,29.99,NE,42,0.0,0.0,87,0.00,,,0.00,Wunderground v.1.12,2013-09-27 08:46:00,
2013-09-27 05:15:00,41.9,38.3,30.00,N/A,-737280,0.0,0.0,87,0.00,,,0.00,Wunderground v.1.12,2013-09-27 09:15:00,
2013-09-27 05:16:00,41.7,37.8,30.00,NE,42,0.0,0.0,86,0.00,,,0.00,Wunderground v.1.12,2013-09-27 09:16:00,
2013-09-27 05:46:00,41.3,37.4,30.01,NE,42,0.0,0.0,86,0.00,,,0.00,Wunderground v.1.12,2013-09-27 09:46:00,
2013-09-27 06:15:00,41.2,37.6,30.02,N/A,-737280,0.0,0.0,87,0.00,,,0.00,Wunderground v.1.12,2013-09-27 10:15:00,
2013-09-27 06:16:00,41.0,37.4,30.01,NE,42,0.0,0.0,87,0.00,,,0.00,Wunderground v.1.12,2013-09-27 10:16:00,
2013-09-27 06:46:00,41.0,37.4,30.03,NE,42,0.0,0.0,87,0.00,,,0.00,Wunderground v.1.12,2013-09-27 10:46:00,
2013-09-27 07:15:00,41.0,37.4,30.04,N/A,-737280,0.0,0.0,87,0.00,,,0.00,Wunderground v.1.12,2013-09-27 11:15:00,
2013-09-27 07:16:00,41.0,37.4,30.03,NE,42,0.0,0.0,87,0.00,,,0.00,Wunderground v.1.12,2013-09-27 11:16:00,
2013-09-27 07:46:00,42.0,38.4,30.03,NE,42,0.0,0.0,87,0.00,,,0.00,Wunderground v.1.12,2013-09-27 11:46:00,
2013-09-27 08:15:00,44.9,41.3,30.04,N/A,-737280,0.0,0.0,87,0.00,,,0.00,Wunderground v.1.12,2013-09-27 12:15:00,
2013-09-27 08:16:00,45.1,41.5,30.04,NE,42,0.0,0.0,87,0.00,,,0.00,Wunderground v.1.12,2013-09-27 12:16:00,
2013-09-27 08:46:00,49.8,45.8,30.04,NE,42,0.0,0.0,86,0.00,,,0.00,Wunderground v.1.12,2013-09-27 12:46:00,
2013-09-27 09:15:00,53.6,46.6,30.05,NE,45,0.0,4.0,77,0.00,,,0.00,Wunderground v.1.12,2013-09-27 13:15:00,
2013-09-27 09:16:00,54.1,48.4,30.05,NE,42,2.0,2.0,81,0.00,,,0.00,Wunderground v.1.12,2013-09-27 13:16:00,
2013-09-27 09:46:00,56.1,48.6,30.05,NE,43,0.0,0.0,76,0.00,,,0.00,Wunderground v.1.12,2013-09-27 13:46:00,
2013-09-27 10:15:00,58.5,48.4,30.05,NE,45,1.0,5.0,69,0.00,,,0.00,Wunderground v.1.12,2013-09-27 14:15:00,
2013-09-27 10:16:00,58.7,48.9,30.05,NE,44,4.0,4.0,70,0.00,,,0.00,Wunderground v.1.12,2013-09-27 14:16:00,
2013-09-27 10:46:00,60.8,49.4,30.05,NE,44,0.0,0.0,66,0.00,,,0.00,Wunderground v.1.12,2013-09-27 14:46:00,
2013-09-27 11:15:00,63.0,49.8,30.05,NE,45,1.0,6.0,62,0.00,,,0.00,Wunderground v.1.12,2013-09-27 15:15:00,
2013-09-27 11:16:00,63.2,51.2,30.05,ENE,60,0.0,0.0,65,0.00,,,0.00,Wunderground v.1.12,2013-09-27 15:16:00,
2013-09-27 11:46:00,66.5,52.6,30.05,NE,56,0.0,0.0,61,0.00,,,0.00,Wunderground v.1.12,2013-09-27 15:46:00,
2013-09-27 12:15:00,65.3,51.1,30.05,East,90,1.0,9.0,60,0.00,,,0.00,Wunderground v.1.12,2013-09-27 16:15:00,
2013-09-27 12:16:00,65.0,51.7,30.05,East,82,0.0,0.0,62,0.00,,,0.00,Wunderground v.1.12,2013-09-27 16:16:00,
2013-09-27 12:46:00,65.0,50.8,30.05,NNE,29,3.0,3.0,60,0.00,,,0.00,Wunderground v.1.12,2013-09-27 16:46:00,
2013-09-27 13:15:00,66.2,50.5,30.04,NE,45,1.0,7.0,57,0.00,,,0.00,Wunderground v.1.12,2013-09-27 17:15:00,
2013-09-27 13:16:00,66.7,51.9,30.04,NE,50,2.0,2.0,59,0.00,,,0.00,Wunderground v.1.12,2013-09-27 17:16:00,
2013-09-27 13:46:00,68.3,51.5,30.04,East,101,0.0,0.0,55,0.00,,,0.00,Wunderground v.1.12,2013-09-27 17:46:00,
2013-09-27 14:15:00,66.7,51.0,30.02,ENE,68,0.0,6.0,57,0.00,,,0.00,Wunderground v.1.12,2013-09-27 18:15:00,
2013-09-27 14:16:00,66.2,51.4,30.03,ENE,73,0.0,0.0,59,0.00,,,0.00,Wunderground v.1.12,2013-09-27 18:16:00,
2013-09-27 14:46:00,67.4,50.7,30.02,NE,48,4.0,4.0,55,0.00,,,0.00,Wunderground v.1.12,2013-09-27 18:46:00,
2013-09-27 15:15:00,66.4,49.7,30.02,NE,45,1.0,8.0,55,0.00,,,0.00,Wunderground v.1.12,2013-09-27 19:15:00,
2013-09-27 15:16:00,66.1,50.4,30.02,East,80,0.0,0.0,57,0.00,,,0.00,Wunderground v.1.12,2013-09-27 19:16:00,
2013-09-27 15:46:00,66.2,49.6,30.02,NE,35,3.0,3.0,55,0.00,,,0.00,Wunderground v.1.12,2013-09-27 19:46:00,
2013-09-27 16:15:00,66.0,49.8,30.02,NE,45,1.0,8.0,56,0.00,,,0.00,Wunderground v.1.12,2013-09-27 20:15:00,
2013-09-27 16:16:00,65.8,49.7,30.02,ENE,67,0.0,0.0,56,0.00,,,0.00,Wunderground v.1.12,2013-09-27 20:16:00,
2013-09-27 16:46:00,64.9,49.8,30.02,ENE,63,2.0,2.0,58,0.00,,,0.00,Wunderground v.1.12,2013-09-27 20:46:00,
2013-09-27 17:15:00,63.6,50.8,30.02,ENE,68,0.0,6.0,63,0.00,,,0.00,Wunderground v.1.12,2013-09-27 21:15:00,
2013-09-27 17:16:00,63.6,49.5,30.01,ENE,58,0.0,0.0,60,0.00,,,0.00,Wunderground v.1.12,2013-09-27 21:16:00,
2013-09-27 17:46:00,61.4,49.5,30.02,NE,55,0.0,0.0,65,0.00,,,0.00,Wunderground v.1.12,2013-09-27 21:46:00,
2013-09-27 18:15:00,59.8,49.6,30.02,N/A,-737280,0.0,0.0,69,0.00,,,0.00,Wunderground v.1.12,2013-09-27 22:15:00,
2013-09-27 18:16:00,59.7,49.1,30.02,NE,55,0.0,0.0,68,0.00,,,0.00,Wunderground v.1.12,2013-09-27 22:16:00,
2013-09-27 18:46:00,57.9,48.6,30.02,NE,35,0.0,0.0,71,0.00,,,0.00,Wunderground v.1.12,2013-09-27 22:46:00,
2013-09-27 19:15:00,55.7,48.9,30.03,N/A,-737280,0.0,0.0,78,0.00,,,0.00,Wunderground v.1.12,2013-09-27 23:15:00,
2013-09-27 19:16:00,55.7,47.9,30.03,NE,35,0.0,0.0,75,0.00,,,0.00,Wunderground v.1.12,2013-09-27 23:16:00,
2013-09-27 19:46:00,53.4,47.4,30.03,NE,35,0.0,0.0,80,0.00,,,0.00,Wunderground v.1.12,2013-09-27 23:46:00,
2013-09-27 20:15:00,52.0,47.0,30.03,N/A,-737280,0.0,0.0,83,0.00,,,0.00,Wunderground v.1.12,2013-09-28 00:15:00,
2013-09-27 20:16:00,51.9,46.6,30.03,NE,34,0.0,0.0,82,0.00,,,0.00,Wunderground v.1.12,2013-09-28 00:16:00,
2013-09-27 20:46:00,51.1,46.4,30.04,NE,35,0.0,0.0,84,0.00,,,0.00,Wunderground v.1.12,2013-09-28 00:46:00,
2013-09-27 21:15:00,50.0,45.4,30.04,N/A,-737280,0.0,0.0,84,0.00,,,0.00,Wunderground v.1.12,2013-09-28 01:15:00,
2013-09-27 21:16:00,49.8,45.2,30.04,NE,35,0.0,0.0,84,0.00,,,0.00,Wunderground v.1.12,2013-09-28 01:16:00,
2013-09-27 21:46:00,49.2,44.9,30.05,NE,35,0.0,0.0,85,0.00,,,0.00,Wunderground v.1.12,2013-09-28 01:46:00,
2013-09-27 22:16:00,48.6,44.3,30.05,NE,35,0.0,0.0,85,0.00,,,0.00,Wunderground v.1.12,2013-09-28 02:16:00,
2013-09-27 22:46:00,47.9,43.6,30.05,NE,34,0.0,0.0,85,0.00,,,0.00,Wunderground v.1.12,2013-09-28 02:46:00,
2013-09-27 23:15:00,47.2,43.2,30.06,N/A,-737280,0.0,0.0,86,0.00,,,0.00,Wunderground v.1.12,2013-09-28 03:15:00,
2013-09-27 23:16:00,47.1,43.1,30.05,NE,35,0.0,0.0,86,0.00,,,0.00,Wunderground v.1.12,2013-09-28 03:16:00,
2013-09-27 23:46:00,46.7,42.7,30.05,NE,34,0.0,0.0,86,0.00,,,0.00,Wunderground v.1.12,2013-09-28 03:46:00,